Flag for U.S.A. Weather past 2 weeks in Charleston, West Virginia, U.S.A.

Now
26 °F

Light snow. Overcast.


Feels Like: 17 °F
Forecast: 20 / 30 °F
Wind: 9 mph from Northwest

Location: Yeager Airport

Current Time: Jan 26, 2015 at 11:02:29 PM

Latest Report: Jan 26, 2015 at 9:54 PM


Visibility: 9 mi

Pressure: 29.93 "Hg

Humidity: 81%

Dew point: 21 °F

Location of CharlestonLocation

Historic Weather in Charleston — Graph

°F

Charleston temperature yesterday

Maximum temperature yesterday: 48 °F (at 2:54 PM)
Minimum temperature yesterday: 31 °F (at 6:54 AM)
Average temperature yesterday: 39 °F

Past Weeks' High & Low Weather Summary

 TemperatureHumidityPressure
High58 °F (Jan 17, 2:54 PM)97% (Jan 12, 5:54 AM)30.55 "Hg (Jan 12, 5:54 AM)
Low20 °F (Jan 17, 7:54 AM)30% (Jan 17, 2:54 PM)29.62 "Hg (Jan 26, 5:54 AM)
Average36 °F75%30.08 "Hg
* Reported Jan 11 8:54 PM — Jan 26 8:54 PM, Charleston, Weather by CustomWeather, © 2014

Note: Actual official high and low records may vary slightly from our data, if they occured in-between our weather recording intervals... More about our weather records

Advertising

Charleston weather history for previous 24 hours

 ConditionsComfort  
Time TempWeatherWind HumidityBarometerVisibility
8:54 PM
Jan 26
27 °FLight snow. Overcast.5 mph81%29.92 "Hg9 mi
7:54 PM27 °FLight snow. Overcast.5 mph81%29.92 "Hg9 mi
6:54 PM27 °FLight snow. Overcast.8 mph81%29.90 "Hg7 mi
5:54 PM27 °FLight snow. Overcast.9 mph81%29.87 "Hg6 mi
4:54 PM27 °FLight snow. Overcast.9 mph81%29.85 "Hg6 mi
3:54 PM27 °FLight snow. Overcast.10 mph81%29.82 "Hg6 mi
2:54 PM27 °FLight snow. Ice fog.8 mph85%29.80 "Hg4 mi
1:54 PM28 °FLight snow. Ice fog.13 mph85%29.79 "Hg1 mi
12:54 PM29 °FLight snow. Ice fog.10 mph89%29.78 "Hg1 mi
11:54 AM30 °FLight snow. Ice fog.13 mph89%29.78 "Hg1 mi
10:54 AM33 °FSleet. Fog.8 mph96%29.75 "Hg1 mi
10:00 AM36 °FLight rain. Fog.12 mph92%29.69 "Hg1 mi
8:58 AM39 °FFog.12 mph96%29.66 "Hg0 mi
7:54 AM40 °FFog.No wind97%29.64 "Hg1 mi
7:03 AM39 °FFog.No wind96%29.63 "Hg2 mi
6:54 AM39 °FFog.No wind96%29.63 "Hg4 mi
5:54 AM39 °FFog.No wind96%29.62 "Hg4 mi
4:54 AM39 °FDrizzle. Fog.No wind96%29.62 "Hg4 mi
3:54 AM39 °FLight rain. Fog.3 mph96%29.63 "Hg4 mi
2:54 AM39 °FLight rain. Fog.No wind96%29.64 "Hg4 mi
1:54 AM39 °FLight rain. Fog.3 mph96%29.65 "Hg4 mi
12:54 AM39 °FLight rain. Fog.3 mph96%29.67 "Hg4 mi
11:54 PM
Jan 25
39 °FLight rain. Fog.3 mph96%29.70 "Hg4 mi
Weather by CustomWeather, © 2014

See weather overviewHow to use our weather pages